Location: Dehesa de la Cepeda
(40.6574°N, 4.3013°W)
Time: 00:25:19
(UTC+00:00)

N. Korean satellite - Visible Passes

Search period start: 26 September 2020 00:00
Search period end: 06 October 2020 00:00
Orbit: 455 x 503 km, 97.2° (Epoch: 25 September)

Date Brightness Start Highest point End Pass type
(mag) Time Alt. Az. Time Alt. Az. Time Alt. Az.
26 Sep 9.8 04:57:11 10° NE 04:59:30 16° E 05:01:47 10° SE visible
28 Sep 7.5 05:37:24 10° NNE 05:40:59 54° E 05:44:27 10° S visible
29 Sep 9.2 05:11:51 10° NE 05:14:51 24° E 05:17:48 10° SSE visible
30 Sep 10.1 04:47:18 10° ENE 04:48:38 12° E 04:49:57 10° ESE visible
02 Oct 8.2 05:26:46 10° NNE 05:30:08 38° E 05:33:26 10° SSE visible
03 Oct 9.7 05:01:27 10° NE 05:03:57 18° E 05:06:25 10° SE visible
05 Oct 7.1 05:41:49 10° NNE 05:45:22 63° E 05:48:49 10° S visible
